Date String (YYYY-MM-DD hh:mm:ss) UTC,Instrument flags,absolute air pressure of the measurement (hPa),sample flow rate (lpm),inlet stack bypass flow (lpm),air temperature of the measurement (°C),ambient temperature measured by the external sensor (°C),aerosol sample conditioner tube jacket temperature (°C),OPC LED temperature (°C),internal box temperature (°C),relative humidity of the measurement (%),span deviation,mass concentration of particles derived from Lorenz-Mie calculation of OPC scattering (μg/m³),mass concentration of particles derived from Lorenz-Mie calculation of OPC scattering (μg/m³),mass concentration of particles derived from Lorenz-Mie calculation of OPC scattering (μg/m³)
DateTimeUTC,F1_M11,P_M11,Q1_M11,Q2_M11,T1_M11,T2_M11,T3_M11,T4_M11,T5_M11,U1_M11,ZSPAN_M11,X0_M11,X2_M11,X1_M11
2023-11-08 08:00:00,SystemResetWarning,0824.7,5.00,000.00,027.8,026.8,000.0,036.2,029.2,14.9,0000.0,0011.30,0003.32,0001.92
2023-11-08 08:01:00,SystemResetWarning,0824.7,5.00,000.00,027.8,026.8,000.0,036.2,029.2,14.9,0000.0,0011.58,0003.31,0001.90
2023-11-08 08:02:00,SystemResetWarning,0824.8,5.00,000.00,027.8,026.8,000.0,036.2,029.2,14.9,0000.0,0011.84,0003.37,0001.88
2023-11-08 08:03:00,SystemResetWarning,0824.9,5.00,000.00,027.8,026.8,000.0,036.2,029.2,14.9,0000.0,0012.60,0003.40,0001.89
2023-11-08 08:04:00,SystemResetWarning,0824.9,5.00,000.00,027.8,026.8,000.0,036.2,029.2,15.0,0000.0,0012.19,0003.37,0001.87
2023-11-08 08:05:00,SystemResetWarning,0824.8,5.00,000.00,027.8,026.8,000.0,036.2,029.2,15.0,0000.0,0012.65,0003.33,0001.87
2023-11-08 08:06:00,SystemResetWarning,0824.9,5.00,000.00,027.8,026.8,000.0,036.2,029.2,15.1,0000.0,0012.66,0003.35,0001.86
2023-11-08 08:07:00,SystemResetWarning,0824.9,5.00,000.00,027.8,026.8,000.0,036.2,029.2,15.0,0000.0,0012.15,0003.35,0001.85
2023-11-08 08:08:00,SystemResetWarning,0824.9,5.00,000.00,027.8,026.8,000.0,036.2,029.2,15.1,0000.0,0011.22,0003.32,0001.86
2023-11-08 08:09:00,SystemResetWarning,0824.9,5.00,000.00,027.8,026.8,000.0,036.2,029.2,15.1,0000.0,0011.60,0003.30,0001.88
2023-11-08 08:10:00,SystemResetWarning,0824.9,5.00,000.00,027.8,026.8,000.0,036.2,029.2,15.0,0000.0,0012.73,0003.26,0001.89
2023-11-08 08:11:00,SystemResetWarning,0824.9,5.00,000.00,027.8,026.8,000.0,036.2,029.2,15.0,0000.0,0012.86,0003.29,0001.90
2023-11-08 08:12:00,SystemResetWarning,0824.9,5.00,000.00,027.8,026.8,000.0,036.2,029.2,15.1,0000.0,0012.56,0003.32,0001.93
2023-11-08 08:13:00,SystemResetWarning,0824.9,5.01,000.00,027.8,026.8,000.0,036.2,029.2,15.2,0000.0,0012.84,0003.32,0001.98
2023-11-08 08:14:00,SystemResetWarning,0824.9,5.00,000.00,027.8,026.8,000.0,036.2,029.2,15.2,0000.0,0013.11,0003.32,0001.99
2023-11-08 08:15:00,SystemResetWarning,0824.9,5.01,000.00,027.8,026.8,000.0,036.2,029.2,15.3,0000.0,0012.96,0003.39,0002.02
2023-11-08 08:16:00,SystemResetWarning,0824.9,4.99,000.00,027.8,026.8,000.0,036.2,029.3,15.4,0000.0,0012.41,0003.41,0002.04
2023-11-08 08:17:00,SystemResetWarning,0824.9,4.98,000.00,027.8,026.8,000.0,036.2,029.3,15.3,0000.0,0012.98,0003.40,0002.06
2023-11-08 08:18:00,SystemResetWarning,0824.9,5.01,000.00,027.8,026.8,000.0,036.2,029.2,15.2,0000.0,0012.83,0003.39,0002.07
2023-11-08 08:19:00,SystemResetWarning,0824.9,5.00,000.00,027.8,026.8,000.0,036.2,029.2,15.1,0000.0,0013.04,0003.43,0002.08
2023-11-08 08:20:00,SystemResetWarning,0824.9,5.01,000.00,027.8,026.8,000.0,036.2,029.2,14.9,0000.0,0013.75,0003.43,0002.09
2023-11-08 08:21:00,SystemResetWarning,0825.0,5.00,000.00,027.8,026.8,000.0,036.2,029.2,14.8,0000.0,0013.12,0003.46,0002.10
2023-11-08 08:22:00,SystemResetWarning,0825.0,5.00,000.00,027.8,026.8,000.0,036.2,029.2,14.7,0000.0,0012.71,0003.46,0002.11
2023-11-08 08:23:00,SystemResetWarning,0825.1,5.00,000.00,027.8,026.8,000.0,036.2,029.2,14.8,0000.0,0012.07,0003.45,0002.11
2023-11-08 08:24:00,SystemResetWarning,0825.1,5.00,000.00,027.8,026.8,000.0,036.2,029.2,15.2,0000.0,0012.49,0003.44,0002.09
2023-11-08 08:25:00,SystemResetWarning,0825.1,5.00,000.00,027.8,026.8,000.0,036.2,029.2,15.4,0000.0,0011.28,0003.44,0002.08
2023-11-08 08:26:00,SystemResetWarning,0825.1,5.00,000.00,027.8,026.8,000.0,036.2,029.2,15.5,0000.0,0010.98,0003.37,0002.07
2023-11-08 08:27:00,SystemResetWarning,0825.1,5.00,000.00,027.8,026.8,000.0,036.2,029.2,15.4,0000.0,0011.21,0003.35,0002.09
2023-11-08 08:28:00,SystemResetWarning,0825.2,4.99,000.00,027.8,026.8,000.0,036.2,029.2,15.1,0000.0,0011.21,0003.40,0002.12
2023-11-08 08:29:00,SystemResetWarning,0825.2,4.99,000.00,027.8,026.8,000.0,036.2,029.2,15.0,0000.0,0011.63,0003.43,0002.14
2023-11-08 08:30:00,SystemResetWarning,0825.2,5.00,000.00,027.8,026.8,000.0,036.2,029.2,14.9,0000.0,0011.89,0003.47,0002.15
2023-11-08 08:31:00,SystemResetWarning,0825.2,5.01,000.00,027.8,026.8,000.0,036.2,029.2,14.9,0000.0,0011.15,0003.49,0002.17
2023-11-08 08:32:00,SystemResetWarning,0825.2,5.01,000.00,027.8,026.8,000.0,036.2,029.2,15.0,0000.0,0011.33,0003.48,0002.16
2023-11-08 08:33:00,SystemResetWarning,0825.2,5.00,000.00,027.8,026.9,000.0,036.2,029.2,15.1,0000.0,0011.84,0003.50,0002.17
2023-11-08 08:34:00,SystemResetWarning,0825.2,4.99,000.00,027.8,026.9,000.0,036.2,029.2,15.1,0000.0,0011.85,0003.51,0002.21
2023-11-08 08:35:00,SystemResetWarning,0825.2,4.99,000.00,027.8,026.8,000.0,036.2,029.2,15.0,0000.0,0011.13,0003.47,0002.24
2023-11-08 08:36:00,SystemResetWarning,0825.2,4.99,000.00,027.8,026.8,000.0,036.2,029.2,15.2,0000.0,0010.88,0003.48,0002.26
2023-11-08 08:37:00,SystemResetWarning,0825.2,5.00,000.00,027.8,026.9,000.0,036.2,029.2,15.3,0000.0,0010.90,0003.54,0002.29
2023-11-08 08:38:00,SystemResetWarning,0825.2,5.00,000.00,027.8,026.9,000.0,036.2,029.2,15.3,0000.0,0010.63,0003.58,0002.29
2023-11-08 08:39:00,SystemResetWarning,0825.2,5.01,000.00,027.8,026.8,000.0,036.2,029.2,15.3,0000.0,0010.75,0003.59,0002.27
2023-11-08 08:40:00,SystemResetWarning,0825.2,5.01,000.00,027.8,026.8,000.0,036.2,029.2,15.3,0000.0,0010.61,0003.62,0002.28
2023-11-08 08:41:00,SystemResetWarning,0825.3,5.00,000.00,027.8,026.8,000.0,036.2,029.2,15.3,0000.0,0010.72,0003.61,0002.27
2023-11-08 08:42:00,SystemResetWarning,0825.2,5.00,000.00,027.8,026.8,000.0,036.2,029.2,15.3,0000.0,0011.80,0003.62,0002.27
2023-11-08 08:43:00,SystemResetWarning,0825.2,5.00,000.00,027.8,026.8,000.0,036.2,029.2,15.4,0000.0,0011.31,0003.66,0002.28
2023-11-08 08:44:00,SystemResetWarning,0825.2,4.99,000.00,027.8,026.8,000.0,036.2,029.2,15.2,0000.0,0011.03,0003.68,0002.30
2023-11-08 08:45:00,SystemResetWarning,0825.2,5.00,000.00,027.8,026.8,000.0,036.2,029.2,15.1,0000.0,0011.81,0003.70,0002.29
2023-11-08 08:46:00,SystemResetWarning,0825.3,5.00,000.00,027.8,026.8,000.0,036.2,029.2,15.0,0000.0,0012.60,0003.77,0002.31
2023-11-08 08:47:00,SystemResetWarning,0825.3,5.00,000.00,027.8,026.8,000.0,036.2,029.2,15.1,0000.0,0013.31,0003.79,0002.34
2023-11-08 08:48:00,SystemResetWarning,0825.3,5.00,000.00,027.8,026.8,000.0,036.2,029.2,14.9,0000.0,0014.02,0003.80,0002.34
2023-11-08 08:49:00,SystemResetWarning,0825.4,5.00,000.00,027.8,026.8,000.0,036.2,029.2,14.9,0000.0,0014.69,0003.81,0002.35
2023-11-08 08:50:00,SystemResetWarning,0825.4,5.00,000.00,027.8,026.8,000.0,036.2,029.2,14.9,0000.0,0014.64,0003.80,0002.35
2023-11-08 08:51:00,SystemResetWarning,0825.3,5.00,000.00,027.8,026.8,000.0,036.2,029.2,14.7,0000.0,0014.55,0003.78,0002.34
2023-11-08 08:52:00,SystemResetWarning,0825.3,5.00,000.00,027.8,026.8,000.0,036.2,029.2,14.6,0000.0,0014.13,0003.77,0002.35
2023-11-08 08:53:00,SystemResetWarning,0825.2,5.00,000.00,027.8,026.8,000.0,036.2,029.2,14.7,0000.0,0013.12,0003.76,0002.36
2023-11-08 08:54:00,SystemResetWarning,0825.2,5.00,000.00,027.8,026.8,000.0,036.2,029.2,14.7,0000.0,0013.20,0003.74,0002.34
2023-11-08 08:55:00,SystemResetWarning,0825.3,5.00,000.00,027.8,026.8,000.0,036.2,029.2,14.7,0000.0,0012.87,0003.70,0002.33
2023-11-08 08:56:00,SystemResetWarning,0825.3,5.00,000.00,027.8,026.8,000.0,036.2,029.2,14.8,0000.0,0012.19,0003.68,0002.32
2023-11-08 08:57:00,SystemResetWarning,0825.3,5.00,000.00,027.8,026.8,000.0,036.2,029.2,14.8,0000.0,0011.85,0003.64,0002.31
2023-11-08 08:58:00,SystemResetWarning,0825.4,5.00,000.00,027.8,026.7,000.0,036.2,029.2,14.8,0000.0,0012.24,0003.62,0002.30
2023-11-08 08:59:00,SystemResetWarning,0825.4,5.00,000.00,027.8,026.7,000.0,036.2,029.2,14.9,0000.0,0011.56,0003.59,0002.28
